Time,TemperatureF,DewpointF,PressureIn,WindDirection,WindDirectionDegrees,WindSpeedMPH,WindSpeedGustMPH,Humidity,HourlyPrecipIn,Conditions,Clouds,dailyrainin,SoftwareType,DateUTC
2013-06-30 00:09:00,79.8,69.0,29.77,NNE,17,0.0,1.0,70,0.00,,,0.00,weatherlink.com 1.10,2013-06-30 05:09:00,
2013-06-30 00:24:00,79.9,68.0,29.77,NNW,343,1.0,5.0,68,0.00,,,0.00,weatherlink.com 1.10,2013-06-30 05:24:00,
2013-06-30 00:40:00,80.7,69.0,29.78,NNE,14,0.0,2.0,68,0.00,,,0.00,weatherlink.com 1.10,2013-06-30 05:40:00,
2013-06-30 00:55:00,80.7,68.0,29.77,North,10,0.0,1.0,66,0.00,,,0.00,weatherlink.com 1.10,2013-06-30 05:55:00,
2013-06-30 01:10:00,80.2,68.0,29.77,North,10,0.0,1.0,66,0.00,,,0.00,weatherlink.com 1.10,2013-06-30 06:10:00,
2013-06-30 01:25:00,79.2,68.0,29.77,North,10,0.0,1.0,68,0.00,,,0.00,weatherlink.com 1.10,2013-06-30 06:25:00,
2013-06-30 01:40:00,78.2,68.0,29.77,North,10,0.0,0.0,70,0.00,,,0.00,weatherlink.com 1.10,2013-06-30 06:40:00,
2013-06-30 01:55:00,77.1,67.0,29.77,North,10,0.0,0.0,72,0.00,,,0.00,weatherlink.com 1.10,2013-06-30 06:55:00,
2013-06-30 02:10:00,76.1,67.0,29.77,North,10,0.0,0.0,74,0.00,,,0.00,weatherlink.com 1.10,2013-06-30 07:10:00,
2013-06-30 02:25:00,74.8,66.0,29.77,North,10,0.0,0.0,75,0.00,,,0.00,weatherlink.com 1.10,2013-06-30 07:25:00,
2013-06-30 02:40:00,74.1,66.0,29.77,North,10,0.0,0.0,76,0.00,,,0.00,weatherlink.com 1.10,2013-06-30 07:40:00,
2013-06-30 02:55:00,73.3,66.0,29.77,North,10,0.0,0.0,77,0.00,,,0.00,weatherlink.com 1.10,2013-06-30 07:55:00,
2013-06-30 03:10:00,72.5,66.0,29.76,North,10,0.0,0.0,79,0.00,,,0.00,weatherlink.com 1.10,2013-06-30 08:10:00,
2013-06-30 03:25:00,71.5,65.0,29.76,North,10,0.0,1.0,80,0.00,,,0.00,weatherlink.com 1.10,2013-06-30 08:25:00,
2013-06-30 03:40:00,70.5,64.0,29.76,North,10,0.0,0.0,81,0.00,,,0.00,weatherlink.com 1.10,2013-06-30 08:40:00,
2013-06-30 03:55:00,69.9,64.0,29.76,North,10,0.0,0.0,82,0.00,,,0.00,weatherlink.com 1.10,2013-06-30 08:55:00,
2013-06-30 04:10:00,69.5,64.0,29.75,North,10,0.0,0.0,83,0.00,,,0.00,weatherlink.com 1.10,2013-06-30 09:10:00,
2013-06-30 04:25:00,69.1,64.0,29.75,North,10,0.0,0.0,84,0.00,,,0.00,weatherlink.com 1.10,2013-06-30 09:25:00,
2013-06-30 04:40:00,68.7,64.0,29.75,North,10,0.0,0.0,84,0.00,,,0.00,weatherlink.com 1.10,2013-06-30 09:40:00,
2013-06-30 04:55:00,68.4,64.0,29.75,North,10,0.0,0.0,85,0.00,,,0.00,weatherlink.com 1.10,2013-06-30 09:55:00,
2013-06-30 05:10:00,67.8,64.0,29.75,North,10,0.0,0.0,87,0.00,,,0.00,weatherlink.com 1.10,2013-06-30 10:10:00,
2013-06-30 05:25:00,67.4,64.0,29.76,North,10,0.0,0.0,87,0.00,,,0.00,weatherlink.com 1.10,2013-06-30 10:25:00,
2013-06-30 05:40:00,67.0,63.0,29.76,North,10,0.0,0.0,87,0.00,,,0.00,weatherlink.com 1.10,2013-06-30 10:40:00,
2013-06-30 05:55:00,66.6,63.0,29.76,North,10,0.0,0.0,87,0.00,,,0.00,weatherlink.com 1.10,2013-06-30 10:55:00,
2013-06-30 06:10:00,66.3,63.0,29.76,North,10,0.0,0.0,88,0.00,,,0.00,weatherlink.com 1.10,2013-06-30 11:10:00,
2013-06-30 06:25:00,66.1,63.0,29.77,North,10,0.0,0.0,88,0.00,,,0.00,weatherlink.com 1.10,2013-06-30 11:25:00,
2013-06-30 06:40:00,66.1,63.0,29.77,North,10,0.0,1.0,89,0.00,,,0.00,weatherlink.com 1.10,2013-06-30 11:40:00,
2013-06-30 06:55:00,66.3,63.0,29.78,North,10,0.0,1.0,89,0.00,,,0.00,weatherlink.com 1.10,2013-06-30 11:55:00,
2013-06-30 07:10:00,66.8,64.0,29.78,North,10,0.0,0.0,89,0.00,,,0.00,weatherlink.com 1.10,2013-06-30 12:10:00,
2013-06-30 07:26:00,68.2,64.0,29.78,North,10,0.0,1.0,87,0.00,,,0.00,weatherlink.com 1.10,2013-06-30 12:26:00,
2013-06-30 07:41:00,70.1,65.0,29.78,North,10,0.0,0.0,84,0.00,,,0.00,weatherlink.com 1.10,2013-06-30 12:41:00,
2013-06-30 07:56:00,72.2,66.0,29.78,North,10,0.0,0.0,82,0.00,,,0.00,weatherlink.com 1.10,2013-06-30 12:56:00,
2013-06-30 08:11:00,74.2,67.0,29.79,North,10,0.0,0.0,79,0.00,,,0.00,weatherlink.com 1.10,2013-06-30 13:11:00,
2013-06-30 08:26:00,76.6,69.0,29.79,North,10,0.0,0.0,78,0.00,,,0.00,weatherlink.com 1.10,2013-06-30 13:26:00,
2013-06-30 08:41:00,79.4,71.0,29.79,North,10,1.0,3.0,75,0.00,,,0.00,weatherlink.com 1.10,2013-06-30 13:41:00,
2013-06-30 08:56:00,80.9,68.0,29.79,NNE,30,2.0,8.0,65,0.00,,,0.00,weatherlink.com 1.10,2013-06-30 13:56:00,
2013-06-30 09:11:00,81.8,70.0,29.80,North,11,0.0,6.0,67,0.00,,,0.00,weatherlink.com 1.10,2013-06-30 14:11:00,
2013-06-30 09:26:00,83.0,70.0,29.80,WNW,285,0.0,5.0,64,0.00,,,0.00,weatherlink.com 1.10,2013-06-30 14:26:00,
2013-06-30 09:41:00,84.7,67.0,29.81,NE,37,4.0,4.0,56,0.00,,,0.00,weatherlink.com 1.10,2013-06-30 14:41:00,
2013-06-30 09:56:00,86.4,69.0,29.81,WNW,296,0.0,5.0,57,0.00,,,0.00,weatherlink.com 1.10,2013-06-30 14:56:00,
2013-06-30 10:11:00,87.7,68.0,29.81,WNW,300,2.0,7.0,52,0.00,,,0.00,weatherlink.com 1.10,2013-06-30 15:11:00,
2013-06-30 10:26:00,88.6,68.0,29.81,WNW,300,5.0,7.0,51,0.00,,,0.00,weatherlink.com 1.10,2013-06-30 15:26:00,
2013-06-30 10:41:00,89.3,68.0,29.81,WNW,294,1.0,5.0,49,0.00,,,0.00,weatherlink.com 1.10,2013-06-30 15:41:00,
2013-06-30 10:56:00,89.5,67.0,29.82,West,264,3.0,5.0,48,0.00,,,0.00,weatherlink.com 1.10,2013-06-30 15:56:00,
2013-06-30 11:11:00,90.1,68.0,29.82,West,279,1.0,5.0,48,0.00,,,0.00,weatherlink.com 1.10,2013-06-30 16:11:00,
2013-06-30 11:26:00,90.7,67.0,29.81,North,5,3.0,6.0,46,0.00,,,0.00,weatherlink.com 1.10,2013-06-30 16:26:00,
2013-06-30 11:41:00,91.0,66.0,29.81,WNW,292,1.0,5.0,43,0.00,,,0.00,weatherlink.com 1.10,2013-06-30 16:41:00,
2013-06-30 11:56:00,91.4,65.0,29.81,West,262,0.0,7.0,42,0.00,,,0.00,weatherlink.com 1.10,2013-06-30 16:56:00,
2013-06-30 12:11:00,91.5,65.0,29.81,NW,320,2.0,10.0,41,0.00,,,0.00,weatherlink.com 1.10,2013-06-30 17:11:00,
2013-06-30 12:26:00,92.4,63.0,29.80,NNE,16,4.0,7.0,38,0.00,,,0.00,weatherlink.com 1.10,2013-06-30 17:26:00,
2013-06-30 12:41:00,91.3,62.0,29.80,NNW,328,3.0,10.0,38,0.00,,,0.00,weatherlink.com 1.10,2013-06-30 17:41:00,
2013-06-30 12:56:00,91.4,64.0,29.79,NW,324,3.0,9.0,40,0.00,,,0.00,weatherlink.com 1.10,2013-06-30 17:56:00,
2013-06-30 13:11:00,91.9,61.0,29.79,WNW,302,3.0,9.0,36,0.00,,,0.00,weatherlink.com 1.10,2013-06-30 18:11:00,
2013-06-30 13:26:00,92.6,63.0,29.79,West,261,5.0,8.0,38,0.00,,,0.00,weatherlink.com 1.10,2013-06-30 18:26:00,
2013-06-30 13:41:00,92.8,63.0,29.78,NW,313,8.0,11.0,37,0.00,,,0.00,weatherlink.com 1.10,2013-06-30 18:41:00,
2013-06-30 13:56:00,93.2,65.0,29.78,North,350,4.0,8.0,39,0.00,,,0.00,weatherlink.com 1.10,2013-06-30 18:56:00,
2013-06-30 14:11:00,93.2,63.0,29.78,WNW,282,2.0,8.0,37,0.00,,,0.00,weatherlink.com 1.10,2013-06-30 19:11:00,
2013-06-30 14:26:00,92.3,64.0,29.77,SW,231,4.0,8.0,39,0.00,,,0.00,weatherlink.com 1.10,2013-06-30 19:26:00,
2013-06-30 14:41:00,92.6,62.0,29.77,SW,227,0.0,5.0,36,0.00,,,0.00,weatherlink.com 1.10,2013-06-30 19:41:00,
2013-06-30 14:56:00,93.1,62.0,29.77,SW,218,2.0,5.0,36,0.00,,,0.00,weatherlink.com 1.10,2013-06-30 19:56:00,
2013-06-30 15:12:00,93.9,62.0,29.77,NW,317,0.0,6.0,34,0.00,,,0.00,weatherlink.com 1.10,2013-06-30 20:12:00,
2013-06-30 15:26:00,93.6,59.0,29.76,NNW,345,5.0,7.0,31,0.00,,,0.00,weatherlink.com 1.10,2013-06-30 20:26:00,
2013-06-30 15:42:00,93.8,60.0,29.76,NNW,338,3.0,9.0,32,0.00,,,0.00,weatherlink.com 1.10,2013-06-30 20:42:00,
2013-06-30 15:57:00,93.3,60.0,29.76,WNW,303,5.0,6.0,33,0.00,,,0.00,weatherlink.com 1.10,2013-06-30 20:57:00,
2013-06-30 16:12:00,93.2,59.0,29.76,ENE,75,2.0,10.0,32,0.00,,,0.00,weatherlink.com 1.10,2013-06-30 21:12:00,
2013-06-30 16:27:00,93.8,61.0,29.75,SW,232,1.0,5.0,33,0.00,,,0.00,weatherlink.com 1.10,2013-06-30 21:27:00,
2013-06-30 16:42:00,93.6,61.0,29.75,NNW,336,2.0,8.0,34,0.00,,,0.00,weatherlink.com 1.10,2013-06-30 21:42:00,
2013-06-30 16:57:00,93.4,61.0,29.75,NNW,334,0.0,7.0,34,0.00,,,0.00,weatherlink.com 1.10,2013-06-30 21:57:00,
2013-06-30 17:12:00,93.1,61.0,29.75,SW,219,2.0,8.0,34,0.00,,,0.00,weatherlink.com 1.10,2013-06-30 22:12:00,
2013-06-30 17:27:00,92.0,62.0,29.75,WNW,297,1.0,5.0,37,0.00,,,0.00,weatherlink.com 1.10,2013-06-30 22:27:00,
2013-06-30 17:42:00,92.3,62.0,29.75,NNW,346,3.0,12.0,36,0.00,,,0.00,weatherlink.com 1.10,2013-06-30 22:42:00,
2013-06-30 17:57:00,91.2,63.0,29.75,WNW,296,2.0,5.0,39,0.00,,,0.00,weatherlink.com 1.10,2013-06-30 22:57:00,
2013-06-30 18:12:00,91.3,62.0,29.75,SE,138,2.0,8.0,37,0.00,,,0.00,weatherlink.com 1.10,2013-06-30 23:12:00,
2013-06-30 18:27:00,90.7,62.0,29.75,WNW,289,3.0,7.0,39,0.00,,,0.00,weatherlink.com 1.10,2013-06-30 23:27:00,
2013-06-30 18:42:00,89.9,63.0,29.75,North,360,0.0,4.0,41,0.00,,,0.00,weatherlink.com 1.10,2013-06-30 23:42:00,
2013-06-30 18:57:00,89.8,62.0,29.75,NNE,30,0.0,8.0,40,0.00,,,0.00,weatherlink.com 1.10,2013-06-30 23:57:00,
2013-06-30 19:12:00,89.6,63.0,29.75,NNW,330,3.0,8.0,41,0.00,,,0.00,weatherlink.com 1.10,2013-07-01 00:12:00,
2013-06-30 19:27:00,88.6,62.0,29.75,NNW,340,2.0,10.0,41,0.00,,,0.00,weatherlink.com 1.10,2013-07-01 00:27:00,
2013-06-30 19:42:00,88.1,62.0,29.76,NNE,27,5.0,11.0,42,0.00,,,0.00,weatherlink.com 1.10,2013-07-01 00:42:00,
2013-06-30 19:57:00,87.6,62.0,29.77,East,90,5.0,7.0,42,0.00,,,0.00,weatherlink.com 1.10,2013-07-01 00:57:00,
2013-06-30 20:12:00,87.0,61.0,29.77,North,355,4.0,9.0,42,0.00,,,0.00,weatherlink.com 1.10,2013-07-01 01:12:00,
2013-06-30 20:27:00,86.4,61.0,29.78,NE,40,4.0,8.0,43,0.00,,,0.00,weatherlink.com 1.10,2013-07-01 01:27:00,
2013-06-30 20:42:00,85.9,62.0,29.78,NE,35,4.0,13.0,45,0.00,,,0.00,weatherlink.com 1.10,2013-07-01 01:42:00,
2013-06-30 20:57:00,85.4,62.0,29.79,NE,40,4.0,9.0,46,0.00,,,0.00,weatherlink.com 1.10,2013-07-01 01:57:00,
2013-06-30 21:12:00,84.9,62.0,29.79,NNE,16,2.0,10.0,47,0.00,,,0.00,weatherlink.com 1.10,2013-07-01 02:12:00,
2013-06-30 21:27:00,84.3,61.0,29.79,NNW,327,1.0,8.0,46,0.00,,,0.00,weatherlink.com 1.10,2013-07-01 02:27:00,
2013-06-30 21:42:00,83.8,61.0,29.80,NNE,23,1.0,7.0,46,0.00,,,0.00,weatherlink.com 1.10,2013-07-01 02:42:00,
2013-06-30 21:57:00,83.1,60.0,29.80,North,5,0.0,5.0,46,0.00,,,0.00,weatherlink.com 1.10,2013-07-01 02:57:00,
2013-06-30 22:12:00,82.2,60.0,29.80,North,5,1.0,6.0,47,0.00,,,0.00,weatherlink.com 1.10,2013-07-01 03:12:00,
2013-06-30 22:27:00,81.4,60.0,29.81,North,360,0.0,6.0,49,0.00,,,0.00,weatherlink.com 1.10,2013-07-01 03:27:00,
2013-06-30 22:42:00,81.0,61.0,29.81,NNE,28,0.0,5.0,50,0.00,,,0.00,weatherlink.com 1.10,2013-07-01 03:42:00,
2013-06-30 22:57:00,80.4,61.0,29.81,NNE,25,2.0,6.0,51,0.00,,,0.00,weatherlink.com 1.10,2013-07-01 03:57:00,
2013-06-30 23:12:00,80.0,61.0,29.82,NNW,338,1.0,5.0,52,0.00,,,0.00,weatherlink.com 1.10,2013-07-01 04:12:00,
2013-06-30 23:27:00,79.8,61.0,29.82,NNW,343,3.0,5.0,52,0.00,,,0.00,weatherlink.com 1.10,2013-07-01 04:27:00,
2013-06-30 23:42:00,79.5,61.0,29.82,NNE,22,2.0,6.0,53,0.00,,,0.00,weatherlink.com 1.10,2013-07-01 04:42:00,
2013-06-30 23:57:00,79.1,61.0,29.82,North,350,7.0,7.0,54,0.00,,,0.00,weatherlink.com 1.10,2013-07-01 04:57:00,